Volver al catálogo

STARLINK-5575

ActivoComunicacionesVLEO
NORAD 55381·PAYLOAD·🇺🇸 United States

Lanzado Jan 26, 2023 desde Cape Canaveral Space Force Station

Loading…

Próximos Pases (próximas 24 horas)

TLE

ActualizadoSource: CelesTrak SupGP

Época: Sep 14, 2026, 21:08 UTC

1 55381C 23013BC  26257.88104167 -.00033499  00000+0 -12132-2 0  2575
2 55381  43.0027 329.9137 0001947 274.6412 117.0039 15.27596844    14

Sigue STARLINK-5575 en tiempo real con AllMySat

Download on the App Store